Date String (YYYY-MM-DD hh:mm:ss) UTC,Instrument flags,Ambient pressure (hPa),Sample flow (lpm),Bypass flow (lpm),Sample temperature (°C),Ambient temperature (°C),ASC tube jacket temperature (°C),LED temperature (°C),Box temperature (°C),Sample RH (%),Span deviation,Mass concentration (μg/m³),Mass concentration (μg/m³),Mass concentration (μg/m³)
DateTimeUTC,F1_M11,P_M11,Q1_M11,Q2_M11,T1_M11,T2_M11,T3_M11,T4_M11,T5_M11,U1_M11,ZSPAN_M11,X0_M11,X2_M11,X1_M11
2023-04-12 15:00:00,,0825.9,5.01,0.00,28.6,27.2,00.0,36.8,30.2,10.5,0000.0,0013.07,0003.74,0002.33
2023-04-12 15:01:00,,0825.9,5.00,0.00,28.6,27.2,00.0,36.8,30.2,10.4,0000.0,0013.77,0003.83,0002.37
2023-04-12 15:02:00,,0825.9,4.99,0.00,28.6,27.2,00.0,36.9,30.2,10.4,0000.0,0014.06,0003.91,0002.39
2023-04-12 15:03:00,,0825.9,5.00,0.00,28.6,27.2,00.0,36.9,30.3,10.4,0000.0,0014.46,0003.94,0002.42
2023-04-12 15:04:00,,0825.9,5.00,0.00,28.6,27.2,00.0,36.9,30.3,10.7,0000.0,0015.07,0003.99,0002.45
2023-04-12 15:05:00,,0825.9,5.00,0.00,28.6,27.2,00.0,36.9,30.3,10.6,0000.0,0014.76,0004.11,0002.50
2023-04-12 15:06:00,,0825.9,4.99,0.00,28.6,27.2,00.0,36.9,30.3,10.1,0000.0,0014.90,0004.20,0002.53
2023-04-12 15:07:00,,0825.9,5.00,0.00,28.7,27.3,00.0,36.9,30.3,10.0,0000.0,0014.13,0004.21,0002.55
2023-04-12 15:08:00,,0825.9,5.00,0.00,28.7,27.3,00.0,36.9,30.3,10.2,0000.0,0014.43,0004.26,0002.57
2023-04-12 15:09:00,,0825.9,5.00,0.00,28.7,27.3,00.0,36.9,30.3,10.1,0000.0,0015.34,0004.32,0002.59
2023-04-12 15:10:00,,0825.9,5.00,0.00,28.7,27.3,00.0,36.9,30.3,10.1,0000.0,0015.31,0004.37,0002.63
2023-04-12 15:11:00,,0825.9,5.00,0.00,28.7,27.3,00.0,37.0,30.3,09.9,0000.0,0014.26,0004.44,0002.67
2023-04-12 15:12:00,,0825.9,5.00,0.00,28.7,27.3,00.0,37.0,30.3,09.9,0000.0,0013.42,0004.39,0002.69
2023-04-12 15:13:00,,0825.9,5.01,0.00,28.7,27.3,00.0,37.0,30.3,09.9,0000.0,0013.36,0004.33,0002.71
2023-04-12 15:14:00,,0825.8,5.00,0.00,28.7,27.3,00.0,37.0,30.4,10.5,0000.0,0013.27,0004.32,0002.75
2023-04-12 15:15:00,,0825.9,5.01,0.00,28.7,27.3,00.0,37.0,30.4,10.1,0000.0,0012.80,0004.36,0002.80
2023-04-12 15:16:00,,0825.9,5.00,0.00,28.7,27.3,00.0,37.0,30.4,10.2,0000.0,0013.50,0004.30,0002.82
2023-04-12 15:17:00,,0825.9,5.00,0.00,28.8,27.3,00.0,37.0,30.4,09.5,0000.0,0013.46,0004.26,0002.86
2023-04-12 15:18:00,,0825.9,5.00,0.00,28.8,27.3,00.0,37.0,30.4,09.3,0000.0,0012.90,0004.21,0002.86
2023-04-12 15:19:00,,0825.9,4.99,0.00,28.8,27.4,00.0,37.0,30.4,09.6,0000.0,0012.36,0004.18,0002.88
2023-04-12 15:20:00,,0825.9,5.00,0.00,28.8,27.4,00.0,37.0,30.4,09.7,0000.0,0011.38,0004.13,0002.91
2023-04-12 15:21:00,,0825.9,5.00,0.00,28.8,27.4,00.0,37.1,30.4,10.4,0000.0,0011.30,0004.11,0002.93
2023-04-12 15:22:00,,0825.9,5.00,0.00,28.8,27.4,00.0,37.1,30.5,10.6,0000.0,0012.04,0004.08,0002.96
2023-04-12 15:23:00,,0825.9,5.00,0.00,28.8,27.4,00.0,37.1,30.5,10.5,0000.0,0012.43,0004.12,0003.00
2023-04-12 15:24:00,,0825.9,4.99,0.00,28.8,27.4,00.0,37.1,30.5,10.8,0001.8,0013.24,0004.20,0003.08
2023-04-12 15:25:00,,0825.8,4.99,0.00,28.8,27.4,00.0,37.1,30.5,11.2,0002.4,0013.77,0004.24,0003.11
2023-04-12 15:26:00,,0825.8,5.00,0.00,28.8,27.4,00.0,37.1,30.5,10.8,0002.5,0013.70,0004.24,0003.12
2023-04-12 15:27:00,,0825.8,5.01,0.00,28.9,27.4,00.0,37.1,30.5,10.7,0000.6,0012.93,0004.26,0003.16
2023-04-12 15:28:00,,0825.8,5.00,0.00,28.9,27.4,00.0,37.1,30.5,10.7,0000.0,0012.81,0004.32,0003.20
2023-04-12 15:29:00,,0825.8,5.00,0.00,28.9,27.5,00.0,37.1,30.5,10.9,0000.0,0013.05,0004.36,0003.25
2023-04-12 15:30:00,,0825.7,4.99,0.00,28.9,27.5,00.0,37.1,30.6,10.7,0000.0,0013.42,0004.42,0003.29
2023-04-12 15:31:00,,0825.7,5.01,0.00,28.9,27.5,00.0,37.2,30.6,10.1,0000.0,0013.85,0004.46,0003.30
2023-04-12 15:32:00,,0825.7,5.01,0.00,28.9,27.5,00.0,37.2,30.6,10.1,0000.0,0013.97,0004.50,0003.30
2023-04-12 15:33:00,,0825.7,4.99,0.00,28.9,27.5,00.0,37.2,30.6,10.1,0000.0,0013.50,0004.56,0003.31
2023-04-12 15:34:00,,0825.7,4.98,0.00,28.9,27.5,00.0,37.2,30.6,10.2,0000.0,0013.44,0004.57,0003.31
2023-04-12 15:35:00,,0825.6,5.01,0.00,28.9,27.6,00.0,37.2,30.6,10.9,0000.0,0012.73,0004.53,0003.30
2023-04-12 15:36:00,,0825.6,5.02,0.00,29.0,27.6,00.0,37.2,30.6,10.9,0000.0,0011.89,0004.51,0003.29
2023-04-12 15:37:00,,0825.6,5.01,0.00,29.0,27.6,00.0,37.2,30.7,11.2,0000.0,0011.23,0004.50,0003.31
2023-04-12 15:38:00,,0825.6,5.00,0.00,29.0,27.6,00.0,37.2,30.7,11.1,0000.0,0011.13,0004.48,0003.32
2023-04-12 15:39:00,,0825.6,5.01,0.00,29.0,27.6,00.0,37.2,30.7,10.5,0000.0,0011.81,0004.48,0003.33
2023-04-12 15:40:00,,0825.6,5.01,0.00,29.0,27.6,00.0,37.3,30.7,10.4,0000.0,0011.64,0004.49,0003.33
2023-04-12 15:41:00,,0825.6,5.00,0.00,29.0,27.7,00.0,37.3,30.7,10.7,0000.0,0011.60,0004.46,0003.33
2023-04-12 15:42:00,,0825.6,5.00,0.00,29.0,27.7,00.0,37.3,30.7,10.7,0000.0,0012.06,0004.51,0003.40
2023-04-12 15:43:00,,0825.7,5.00,0.00,29.0,27.7,00.0,37.3,30.7,10.4,0000.0,0012.60,0004.57,0003.45
2023-04-12 15:44:00,,0825.7,5.00,0.00,29.1,27.7,00.0,37.3,30.7,10.2,0000.0,0012.41,0004.55,0003.49
2023-04-12 15:45:00,,0825.7,5.01,0.00,29.1,27.7,00.0,37.3,30.7,10.5,0000.0,0012.85,0004.57,0003.52
2023-04-12 15:46:00,,0825.7,5.00,0.00,29.1,27.7,00.0,37.3,30.7,10.5,0003.0,0013.52,0004.67,0003.58
2023-04-12 15:47:00,,0825.7,5.02,0.00,29.1,27.7,00.0,37.3,30.8,11.0,0005.1,0014.21,0004.78,0003.65
2023-04-12 15:48:00,,0825.7,5.00,0.00,29.1,27.7,00.0,37.4,30.8,11.4,0005.8,0014.41,0004.92,0003.77
2023-04-12 15:49:00,,0825.6,5.00,0.00,29.1,27.8,00.0,37.4,30.8,11.5,0006.3,0014.22,0005.04,0003.88
2023-04-12 15:50:00,,0825.6,5.01,0.00,29.1,27.8,00.0,37.4,30.8,11.2,0005.9,0014.14,0005.16,0003.98
2023-04-12 15:51:00,,0825.6,4.99,0.00,29.2,27.8,00.0,37.4,30.8,11.4,0005.0,0015.55,0005.33,0004.10
2023-04-12 15:52:00,,0825.6,4.99,0.00,29.2,27.8,00.0,37.4,30.8,11.6,0004.6,0015.51,0005.45,0004.18
2023-04-12 15:53:00,,0825.7,5.00,0.00,29.2,27.8,00.0,37.4,30.8,11.6,0004.5,0015.64,0005.56,0004.22
2023-04-12 15:54:00,,0825.7,5.01,0.00,29.2,27.8,00.0,37.4,30.8,11.7,0003.7,0016.24,0005.68,0004.30
2023-04-12 15:55:00,,0825.7,5.01,0.00,29.2,27.8,00.0,37.5,30.8,11.8,0000.8,0017.05,0005.82,0004.38
2023-04-12 15:56:00,,0825.6,5.00,0.00,29.2,27.8,00.0,37.5,30.8,11.5,0000.9,0016.61,0005.92,0004.45
2023-04-12 15:57:00,,0825.6,5.00,0.00,29.2,27.8,00.0,37.5,30.8,11.4,-000.2,0016.24,0006.00,0004.51
2023-04-12 15:58:00,,0825.5,5.00,0.00,29.2,27.9,00.0,37.5,30.9,11.9,-000.5,0016.06,0006.02,0004.54
2023-04-12 15:59:00,,0825.5,4.99,0.00,29.2,27.9,00.0,37.5,30.9,11.9,-000.6,0016.77,0005.99,0004.50
